Find Starlink 32480

NORAD ID: 62039 Int'l Des: 2024-216 Owner: SPXS Country: US Constellation: starlink operational
LEOCIRCULAR

Current View

Loading 3D Globe...

About Starlink 32480

Starlink 32480 (NORAD 62039) is a starlink constellation satellite (v2 mini) launched Nov 21, 2024 by SPXS of US. It operates in LEO, CIRCULAR orbit with a mass of 730.00 kg.

About Starlink 32480

Description loading...

Upcoming Passes

Passes for default location (London). Set your location on the main map for personalized predictions.

Altitude History

Loading altitude history...

Two-Line Element Set

1 62039U 24216H 26174.61786326 .00017025 00000-0 62647-3 0 9997
2 62039 43.0021 18.2966 0001268 246.8645 113.2073 15.27596883 88913
Epoch: Jun 23, 2026 • Age: 20 hours

Current Status

Altitude 486.1 km
Velocity 7.62 km/s
Sub-Earth Point -17.89°S, 142.8°E
Launch Date Nov 21, 2024
Age 1.5 years
Type internet

Technical Details

Classification Payload
Mass 730.00 kg
Dry Mass 700.00 kg
Total Mass 730.00 kg
Length 0.30 m
Diameter 4.10 m
Span 29.00 m
Shape Box + pan
Manufacturer SPXS
Bus Type Starlink V2M
Phase Status In Orbit
Owner/State SPXS/US

Most Searched